Preview of NWS' New Version of Forecast
This preview is not operational and should not be used for support decisions.

Regional Weather Roundup (RWR)

Issued by National Weather Service (NWS)

                            
000
ASUS45 KCYS 232010
RWRWY 

WYOMING REGIONAL WEATHER ROUNDUP
NATIONAL WEATHER SERVICE CHEYENNE WY
200 PM MDT SUN JUN 23 2019

NOTE:  "FAIR" INDICATES FEW OR NO CLOUDS BELOW 12,000 FEET
WITH NO SIGNIFICANT WEATHER AND/OR OBSTRUCTIONS TO VISIBILITY.

WYZ001-232100-
YELLOWSTONE NATIONAL PARK
  
CITY           SKY/WX    TMP DP  RH WIND       PRES   REMARKS
LK YELLOWSTONE   N/A     49  33  54 W6        30.14S                  
W YELLOWSTONE  NOT AVBL                                               

$$
WYZ002>013-054>058-071-098>099-232100-
NORTHERN WYOMING
  
CITY           SKY/WX    TMP DP  RH WIND       PRES   REMARKS
JACKSON        CLOUDY    57  36  45 S10       30.10F                  
CODY           PTSUNNY   67  33  28 CALM      29.98F                  
GREYBULL       FAIR      74  36  25 NE12      29.91F                  
WORLAND        FAIR      71  30  21 VRB3      29.94F                  
SHERIDAN       FAIR      72  42  34 S7        29.92F                  
BUFFALO        FAIR      67  41  38 SE9       29.97F                  
GILLETTE       PTSUNNY   69  45  41 N6        29.94F                  
HULETT         FAIR      64  48  55 S9        29.96                   
NEWCASTLE      CLOUDY    61  43  51 SW7       29.97                   

$$
WYZ014>020-022>026-101>103-232100-
CENTRAL WYOMING
  
CITY           SKY/WX    TMP DP  RH WIND       PRES   REMARKS
BIG PINEY      PTSUNNY   60  30  32 NW12      30.13F                  
PINEDALE       CLOUDY    55  30  38 W12       30.14                   
DUBOIS         MOCLDY    55  28  35 NW16G22   30.09                   
LANDER         PTSUNNY   65  37  35 S7        30.00F                  
RIVERTON       FAIR      68  31  25 SE9G17    30.01F                  
CASPER         FAIR      66  42  41 SW8       30.01F                  
DOUGLAS        FAIR      60  46  59 SW9       30.03                   

$$
WYZ021-027>030-104>119-232100-
SOUTHERN WYOMING
  
CITY           SKY/WX    TMP DP  RH WIND       PRES   REMARKS
EVANSTON       FAIR      62  30  29 W21G28    30.18F                  
KEMMERER       FAIR      61  27  27 W13G26    30.17                   
ROCK SPRINGS   CLOUDY    60  25  26 W14G24    30.12F                  
DIXON          MOCLDY    57  38  50 E6G17     30.17F                  
RAWLINS        PTSUNNY   59  35  40 NW12G22   30.11F                  
SARATOGA       CLOUDY    54  34  47 W12G24    30.14F                  
LARAMIE        PTSUNNY   52  38  58 NW20      30.10F                  
CHEYENNE       PTSUNNY   52  41  66 N18       30.09R                  
TORRINGTON     FAIR      55  50  83 S3        30.01F                  
PINE BLUFFS    MOCLDY    55  41  58 N10       30.04F                  

$$
  

000
ASUS45 KCYS 232010
RWRWY 

WYOMING REGIONAL WEATHER ROUNDUP
NATIONAL WEATHER SERVICE CHEYENNE WY
200 PM MDT SUN JUN 23 2019

NOTE:  "FAIR" INDICATES FEW OR NO CLOUDS BELOW 12,000 FEET
WITH NO SIGNIFICANT WEATHER AND/OR OBSTRUCTIONS TO VISIBILITY.

WYZ001-232100-
...YELLOWSTONE NATIONAL PARK...
  
CITY           SKY/WX    TMP DP  RH WIND       PRES   REMARKS
LK YELLOWSTONE   N/A     49  33  54 W6        30.14S                  
W YELLOWSTONE  NOT AVBL                                               

$$
WYZ002>013-054>058-071-098>099-232100-
...NORTHERN WYOMING...
  
CITY           SKY/WX    TMP DP  RH WIND       PRES   REMARKS
JACKSON        CLOUDY    57  36  45 S10       30.10F                  
CODY           CLOUDY    67  33  28 CALM      29.98F                  
GREYBULL       MOSUNNY   74  36  25 NE12      29.91F                  
WORLAND        MOSUNNY   71  30  21 VRB3      29.94F                  
SHERIDAN       MOSUNNY   72  42  34 S7        29.92F                  
BUFFALO        MOSUNNY   67  41  38 SE9       29.97F                  
GILLETTE       PTSUNNY   69  45  41 N6        29.94F                  
HULETT         FAIR      64  48  55 S9        29.96F                  
NEWCASTLE      CLOUDY    61  43  51 SW7       29.97F                  

$$
WYZ014>020-022>026-101>103-232100-
...CENTRAL WYOMING...
  
CITY           SKY/WX    TMP DP  RH WIND       PRES   REMARKS
BIG PINEY      CLOUDY    60  30  32 NW12      30.13F                  
PINEDALE       CLOUDY    55  30  38 W12       30.14S                  
DUBOIS         PTSUNNY   55  28  35 NW16G22   30.09S                  
LANDER         PTSUNNY   65  37  35 S7        30.00F                  
RIVERTON       MOSUNNY   68  31  25 SE9G17    30.01F                  
CASPER         MOSUNNY   66  42  41 SW8       30.01F                  
DOUGLAS        MOSUNNY   60  46  59 SW9       30.03                   

$$
WYZ021-027>030-104>119-232100-
...SOUTHERN WYOMING...
  
CITY           SKY/WX    TMP DP  RH WIND       PRES   REMARKS
EVANSTON       MOSUNNY   62  30  29 W21G28    30.18F                  
KEMMERER       SUNNY     61  27  27 NW14G25   30.17S                  
FORT BRIDGER   NOT AVBL                                               
ROCK SPRINGS   CLOUDY    60  25  26 W14G24    30.12F                  
DIXON          PTSUNNY   57  38  50 E6G17     30.17F                  
RAWLINS        PTSUNNY   59  35  40 NW12G22   30.11F                  
SARATOGA       CLOUDY    54  34  47 W12G24    30.14F                  
LARAMIE        PTSUNNY   52  38  58 NW20      30.10F                  
CHEYENNE       PTSUNNY   52  41  66 N18       30.09R                  
TORRINGTON     CLOUDY    55  50  83 S3        30.01F                  
PINE BLUFFS    PTSUNNY   55  41  58 N10       30.04F                  

$$